sat.trackr.live / text

‹ back to catalog

STARLINK-36443

NORAD 67431 · 2026-005AD

PAYLOAD ACTIVE UNKNOWN

§ Identity

Operator
Country
US
Launch date
2026-01-12
Launch site
AFETR
Launch vehicle
Mass (kg)
RCS (m²)

Purposes: comms

External: N2YO · Heavens-Above · Gunter

§ Orbital elements

Epoch: 2026-09-19T14:08:21.564672Z

Period
94.26 min
Inclination
43.0009°
Eccentricity
0.0000786
Mean motion
15.27616762 rev/d
Perigee alt
482.4 km
Apogee alt
483.5 km
Semi-major
6,861.1 km
B*
2.9928e-4
RAAN
222.6931°
Arg perigee
353.6054°
Mean anomaly
6.4788°
Rev number
3,835

§ Raw data

STARLINK-364431 67431U 26005AD  26262.58913848  .00007992  00000+0  29928-3 0  99972 67431  43.0009 222.6931 0000786 353.6054   6.4788 15.27616762 38356

JSON: /api/v1/satellites/67431 · /tle

For live sub-satellite position, see the globe view (requires WebGL).

§ Visibility from observer

Set your observer location to see the next 7 days of passes ≥ 10°. The values pass through the URL so the page stays shareable.

No JS? Fill the form by hand. The geolocation button needs JavaScript.